Time,TemperatureF,DewpointF,PressureIn,WindDirection,WindDirectionDegrees,WindSpeedMPH,WindSpeedGustMPH,Humidity,HourlyPrecipIn,Conditions,Clouds,dailyrainin,SoftwareType,DateUTC
2013-08-17 00:01:00,58.4,54.5,30.20,WNW,295,0.0,0.0,87,0.00,CLR,OVC,0.00,WeatherDisplay:10.37,2013-08-17 04:01:00,
2013-08-17 00:06:00,58.4,54.5,30.20,WNW,296,0.0,0.0,87,0.00,CLR,OVC,0.00,WeatherDisplay:10.37,2013-08-17 04:06:00,
2013-08-17 00:11:00,58.3,54.4,30.20,WNW,296,0.0,0.0,87,0.00,CLR,OVC,0.00,WeatherDisplay:10.37,2013-08-17 04:11:00,
2013-08-17 00:16:00,58.6,54.7,30.20,WNW,295,0.0,0.0,87,0.00,CLR,OVC,0.00,WeatherDisplay:10.37,2013-08-17 04:16:00,
2013-08-17 00:21:00,58.1,53.9,30.21,WNW,295,0.0,0.0,86,0.00,CLR,OVC,0.00,WeatherDisplay:10.37,2013-08-17 04:21:00,
2013-08-17 00:26:00,58.2,54.3,30.20,WNW,296,0.0,0.0,87,0.00,CLR,OVC,0.00,WeatherDisplay:10.37,2013-08-17 04:26:00,
2013-08-17 00:31:00,58.1,54.6,30.20,WNW,296,0.0,0.0,88,0.00,CLR,OVC,0.00,WeatherDisplay:10.37,2013-08-17 04:31:00,
2013-08-17 00:36:00,58.2,54.3,30.20,WNW,295,0.0,0.0,87,0.00,CLR,OVC,0.00,WeatherDisplay:10.37,2013-08-17 04:36:00,
2013-08-17 00:41:00,57.7,53.5,30.20,WNW,295,0.0,0.0,86,0.00,CLR,OVC,0.00,WeatherDisplay:10.37,2013-08-17 04:41:00,
2013-08-17 00:46:00,57.8,54.0,30.21,WNW,296,0.0,0.0,87,0.00,CLR,OVC,0.00,WeatherDisplay:10.37,2013-08-17 04:46:00,
2013-08-17 00:51:00,57.8,54.0,30.21,WNW,295,0.0,0.0,87,0.00,CLR,OVC,0.00,WeatherDisplay:10.37,2013-08-17 04:51:00,
2013-08-17 00:56:00,57.4,53.6,30.20,WNW,295,0.0,0.0,87,0.00,CLR,OVC,0.00,WeatherDisplay:10.37,2013-08-17 04:56:00,
2013-08-17 01:01:00,57.6,53.4,30.21,WNW,295,0.0,0.0,86,0.00,CLR,OVC,0.00,WeatherDisplay:10.37,2013-08-17 05:01:00,
2013-08-17 01:06:00,57.5,53.7,30.20,WNW,295,0.0,0.0,87,0.00,CLR,OVC,0.00,WeatherDisplay:10.37,2013-08-17 05:06:00,
2013-08-17 01:11:00,57.3,53.8,30.21,WNW,296,0.0,0.0,88,0.00,CLR,OVC,0.00,WeatherDisplay:10.37,2013-08-17 05:11:00,
2013-08-17 01:16:00,57.1,53.9,30.21,WNW,295,0.0,0.0,89,0.00,CLR,OVC,0.00,WeatherDisplay:10.37,2013-08-17 05:16:00,
2013-08-17 01:21:00,57.2,54.0,30.21,WNW,295,0.0,0.0,89,0.00,CLR,OVC,0.00,WeatherDisplay:10.37,2013-08-17 05:21:00,
2013-08-17 01:26:00,57.0,53.5,30.21,WNW,296,0.0,0.0,88,0.00,CLR,OVC,0.00,WeatherDisplay:10.37,2013-08-17 05:26:00,
2013-08-17 01:31:00,57.0,53.2,30.21,WNW,296,0.0,0.0,87,0.00,CLR,OVC,0.00,WeatherDisplay:10.37,2013-08-17 05:31:00,
2013-08-17 01:36:00,56.9,52.8,30.21,WNW,295,0.0,0.0,86,0.00,CLR,OVC,0.00,WeatherDisplay:10.37,2013-08-17 05:36:00,
2013-08-17 01:41:00,57.0,52.9,30.22,WNW,295,0.0,0.0,86,0.00,CLR,OVC,0.00,WeatherDisplay:10.37,2013-08-17 05:41:00,
2013-08-17 01:46:00,56.9,52.8,30.21,WNW,295,0.0,0.0,86,0.00,CLR,OVC,0.00,WeatherDisplay:10.37,2013-08-17 05:46:00,
2013-08-17 01:51:00,56.7,52.9,30.22,WNW,296,0.0,0.0,87,0.00,CLR,OVC,0.00,WeatherDisplay:10.37,2013-08-17 05:51:00,
2013-08-17 01:56:00,56.4,52.6,30.22,WNW,295,0.0,0.0,87,0.00,CLR,OVC,0.00,WeatherDisplay:10.37,2013-08-17 05:56:00,
2013-08-17 02:01:00,56.3,52.5,30.22,WNW,295,0.0,0.0,87,0.00,CLR,OVC,0.00,WeatherDisplay:10.37,2013-08-17 06:01:00,
2013-08-17 02:06:00,56.4,52.6,30.21,WNW,296,0.0,0.0,87,0.00,CLR,OVC,0.00,WeatherDisplay:10.37,2013-08-17 06:06:00,
2013-08-17 02:11:00,56.3,52.5,30.21,WNW,295,0.0,0.0,87,0.00,CLR,OVC,0.00,WeatherDisplay:10.37,2013-08-17 06:11:00,
2013-08-17 02:16:00,56.5,52.4,30.22,WNW,296,0.0,0.0,86,0.00,CLR,OVC,0.00,WeatherDisplay:10.37,2013-08-17 06:16:00,
2013-08-17 02:21:00,56.4,52.3,30.21,WNW,295,0.0,0.0,86,0.00,CLR,OVC,0.00,WeatherDisplay:10.37,2013-08-17 06:21:00,
2013-08-17 02:26:00,56.5,52.7,30.21,WNW,295,0.0,0.0,87,0.00,CLR,OVC,0.00,WeatherDisplay:10.37,2013-08-17 06:26:00,
2013-08-17 02:31:00,56.3,52.8,30.22,WNW,296,0.0,0.0,88,0.00,CLR,OVC,0.00,WeatherDisplay:10.37,2013-08-17 06:31:00,
2013-08-17 02:36:00,56.2,52.4,30.22,WNW,296,0.0,0.0,87,0.00,CLR,OVC,0.00,WeatherDisplay:10.37,2013-08-17 06:36:00,
2013-08-17 02:41:00,56.2,52.7,30.22,WNW,296,0.0,0.0,88,0.00,CLR,OVC,0.00,WeatherDisplay:10.37,2013-08-17 06:41:00,
2013-08-17 02:46:00,55.9,52.4,30.22,WNW,296,0.0,0.0,88,0.00,CLR,OVC,0.00,WeatherDisplay:10.37,2013-08-17 06:46:00,
2013-08-17 02:51:00,56.4,53.5,30.22,WNW,296,0.0,0.0,90,0.00,CLR,OVC,0.00,WeatherDisplay:10.37,2013-08-17 06:51:00,
2013-08-17 02:56:00,55.6,52.7,30.22,WNW,296,0.0,0.0,90,0.00,CLR,OVC,0.00,WeatherDisplay:10.37,2013-08-17 06:56:00,
2013-08-17 03:01:00,55.9,52.7,30.22,WNW,294,0.0,1.2,89,0.00,CLR,OVC,0.00,WeatherDisplay:10.37,2013-08-17 07:01:00,
2013-08-17 03:06:00,55.7,52.5,30.21,WNW,296,0.0,0.0,89,0.00,CLR,OVC,0.00,WeatherDisplay:10.37,2013-08-17 07:06:00,
2013-08-17 03:11:00,56.2,52.7,30.21,WNW,296,0.0,0.0,88,0.00,CLR,OVC,0.00,WeatherDisplay:10.37,2013-08-17 07:11:00,
2013-08-17 03:16:00,55.8,52.3,30.21,WNW,296,0.0,0.0,88,0.00,CLR,OVC,0.00,WeatherDisplay:10.37,2013-08-17 07:16:00,
2013-08-17 03:21:00,55.7,52.2,30.21,WNW,295,0.0,0.0,88,0.00,CLR,OVC,0.00,WeatherDisplay:10.37,2013-08-17 07:21:00,
2013-08-17 03:27:00,55.6,51.8,30.22,WNW,296,0.0,0.0,87,0.00,CLR,OVC,0.00,WeatherDisplay:10.37,2013-08-17 07:27:00,
2013-08-17 03:32:00,55.6,51.5,30.22,WNW,296,0.0,0.0,86,0.00,CLR,OVC,0.00,WeatherDisplay:10.37,2013-08-17 07:32:00,
2013-08-17 03:37:00,55.5,51.4,30.22,WNW,296,0.0,0.0,86,0.00,CLR,OVC,0.00,WeatherDisplay:10.37,2013-08-17 07:37:00,
2013-08-17 03:42:00,55.3,51.2,30.22,WNW,296,0.0,0.0,86,0.00,CLR,OVC,0.00,WeatherDisplay:10.37,2013-08-17 07:42:00,
2013-08-17 03:47:00,55.7,51.9,30.22,WNW,296,0.0,0.0,87,0.00,CLR,OVC,0.00,WeatherDisplay:10.37,2013-08-17 07:47:00,
2013-08-17 03:52:00,55.4,51.3,30.22,WNW,295,0.0,0.0,86,0.00,CLR,OVC,0.00,WeatherDisplay:10.37,2013-08-17 07:52:00,
2013-08-17 03:57:00,55.3,51.5,30.21,WNW,295,0.0,0.0,87,0.00,CLR,OVC,0.00,WeatherDisplay:10.37,2013-08-17 07:57:00,
2013-08-17 04:02:00,55.1,51.0,30.22,WNW,295,0.0,0.0,86,0.00,CLR,OVC,0.00,WeatherDisplay:10.37,2013-08-17 08:02:00,
2013-08-17 04:07:00,55.2,51.1,30.22,WNW,296,0.0,0.0,86,0.00,CLR,OVC,0.00,WeatherDisplay:10.37,2013-08-17 08:07:00,
2013-08-17 04:12:00,55.2,51.4,30.22,WNW,295,0.0,0.0,87,0.00,CLR,OVC,0.00,WeatherDisplay:10.37,2013-08-17 08:12:00,
2013-08-17 04:17:00,55.1,51.0,30.22,WNW,295,0.0,0.0,86,0.00,CLR,OVC,0.00,WeatherDisplay:10.37,2013-08-17 08:17:00,
2013-08-17 04:22:00,54.9,50.8,30.21,WNW,296,0.0,0.0,86,0.00,CLR,OVC,0.00,WeatherDisplay:10.37,2013-08-17 08:22:00,
2013-08-17 04:27:00,54.8,50.7,30.22,WNW,295,0.0,0.0,86,0.00,CLR,OVC,0.00,WeatherDisplay:10.37,2013-08-17 08:27:00,
2013-08-17 04:32:00,54.4,50.6,30.22,WNW,295,0.0,0.0,87,0.00,CLR,OVC,0.00,WeatherDisplay:10.37,2013-08-17 08:32:00,
2013-08-17 04:37:00,54.6,51.1,30.22,WNW,296,0.2,0.0,88,0.00,CLR,OVC,0.00,WeatherDisplay:10.37,2013-08-17 08:37:00,
2013-08-17 04:42:00,54.5,50.7,30.22,WNW,295,0.0,0.0,87,0.00,CLR,OVC,0.00,WeatherDisplay:10.37,2013-08-17 08:42:00,
2013-08-17 04:47:00,54.5,50.4,30.22,WNW,296,0.0,0.0,86,0.00,CLR,OVC,0.00,WeatherDisplay:10.37,2013-08-17 08:47:00,
2013-08-17 04:52:00,54.7,50.6,30.23,WNW,295,0.0,0.0,86,0.00,CLR,OVC,0.00,WeatherDisplay:10.37,2013-08-17 08:52:00,
2013-08-17 04:57:00,54.6,50.5,30.22,WNW,296,0.0,0.0,86,0.00,CLR,OVC,0.00,WeatherDisplay:10.37,2013-08-17 08:57:00,
2013-08-17 05:02:00,54.3,50.5,30.22,WNW,296,0.1,1.2,87,0.00,CLR,OVC,0.00,WeatherDisplay:10.37,2013-08-17 09:02:00,
2013-08-17 05:07:00,54.3,50.5,30.23,WNW,296,0.0,0.0,87,0.00,CLR,OVC,0.00,WeatherDisplay:10.37,2013-08-17 09:07:00,
2013-08-17 05:12:00,54.0,49.9,30.23,WNW,296,0.0,0.0,86,0.00,CLR,OVC,0.00,WeatherDisplay:10.37,2013-08-17 09:12:00,
2013-08-17 05:17:00,54.1,50.3,30.23,WNW,296,0.0,0.0,87,0.00,CLR,OVC,0.00,WeatherDisplay:10.37,2013-08-17 09:17:00,
2013-08-17 05:22:00,54.2,50.4,30.23,WNW,295,0.0,0.0,87,0.00,CLR,OVC,0.00,WeatherDisplay:10.37,2013-08-17 09:22:00,
2013-08-17 05:27:00,53.9,50.4,30.23,WNW,295,0.0,0.0,88,0.00,CLR,OVC,0.00,WeatherDisplay:10.37,2013-08-17 09:27:00,
2013-08-17 05:32:00,54.0,50.5,30.24,WNW,295,0.2,1.0,88,0.00,CLR,OVC,0.00,WeatherDisplay:10.37,2013-08-17 09:32:00,
2013-08-17 05:37:00,53.9,50.4,30.24,WNW,295,0.0,0.0,88,0.00,CLR,OVC,0.00,WeatherDisplay:10.37,2013-08-17 09:37:00,
2013-08-17 05:42:00,53.8,50.3,30.24,WNW,295,0.0,1.2,88,0.00,CLR,OVC,0.00,WeatherDisplay:10.37,2013-08-17 09:42:00,
2013-08-17 05:47:00,53.9,50.4,30.24,WNW,296,0.0,0.0,88,0.00,CLR,OVC,0.00,WeatherDisplay:10.37,2013-08-17 09:47:00,
2013-08-17 05:52:00,53.9,50.4,30.24,WNW,295,0.0,0.0,88,0.00,CLR,OVC,0.00,WeatherDisplay:10.37,2013-08-17 09:52:00,
2013-08-17 05:57:00,53.8,50.3,30.24,WNW,296,0.0,0.0,88,0.00,CLR,OVC,0.00,WeatherDisplay:10.37,2013-08-17 09:57:00,
2013-08-17 06:02:00,53.7,49.9,30.25,WNW,295,0.0,0.0,87,0.00,CLR,OVC,0.00,WeatherDisplay:10.37,2013-08-17 10:02:00,
2013-08-17 06:07:00,53.6,49.8,30.25,WNW,295,0.0,0.0,87,0.00,CLR,OVC,0.00,WeatherDisplay:10.37,2013-08-17 10:07:00,
2013-08-17 06:12:00,53.9,50.1,30.25,WNW,296,0.0,0.0,87,0.00,CLR,OVC,0.00,WeatherDisplay:10.37,2013-08-17 10:12:00,
2013-08-17 06:17:00,53.8,50.3,30.25,WNW,295,0.0,0.0,88,0.00,CLR,OVC,0.00,WeatherDisplay:10.37,2013-08-17 10:17:00,
2013-08-17 06:22:00,53.7,50.2,30.25,WNW,296,0.0,0.0,88,0.00,CLR,OVC,0.00,WeatherDisplay:10.37,2013-08-17 10:22:00,
2013-08-17 06:27:00,53.9,50.7,30.25,WNW,295,0.0,0.0,89,0.00,CLR,OVC,0.00,WeatherDisplay:10.37,2013-08-17 10:27:00,
2013-08-17 06:32:00,54.1,50.6,30.25,WNW,296,0.0,0.0,88,0.00,CLR,OVC,0.00,WeatherDisplay:10.37,2013-08-17 10:32:00,
2013-08-17 06:37:00,53.6,50.1,30.25,WNW,296,0.0,0.0,88,0.00,CLR,OVC,0.00,WeatherDisplay:10.37,2013-08-17 10:37:00,
2013-08-17 06:42:00,53.9,50.4,30.25,WNW,295,0.0,0.0,88,0.00,CLR,OVC,0.00,WeatherDisplay:10.37,2013-08-17 10:42:00,
2013-08-17 06:47:00,54.1,50.6,30.26,WNW,296,0.0,0.0,88,0.00,CLR,OVC,0.00,WeatherDisplay:10.37,2013-08-17 10:47:00,
2013-08-17 06:52:00,54.4,50.9,30.25,WNW,295,0.0,0.0,88,0.00,CLR,OVC,0.00,WeatherDisplay:10.37,2013-08-17 10:52:00,
2013-08-17 06:57:00,54.7,51.2,30.25,WNW,296,0.0,0.0,88,0.00,CLR,OVC,0.00,WeatherDisplay:10.37,2013-08-17 10:57:00,
2013-08-17 07:02:00,54.6,51.4,30.25,WNW,295,0.0,0.0,89,0.00,CLR,OVC,0.00,WeatherDisplay:10.37,2013-08-17 11:02:00,
2013-08-17 07:07:00,55.1,51.9,30.25,WNW,296,0.0,0.0,89,0.00,CLR,OVC,0.00,WeatherDisplay:10.37,2013-08-17 11:07:00,
2013-08-17 07:12:00,55.1,51.9,30.25,WNW,296,0.0,0.0,89,0.00,CLR,OVC,0.00,WeatherDisplay:10.37,2013-08-17 11:12:00,
2013-08-17 07:17:00,55.6,52.4,30.25,WNW,296,0.0,0.0,89,0.00,CLR,OVC,0.00,WeatherDisplay:10.37,2013-08-17 11:17:00,
2013-08-17 07:22:00,56.3,52.8,30.26,WNW,296,0.0,0.0,88,0.00,CLR,OVC,0.00,WeatherDisplay:10.37,2013-08-17 11:22:00,
2013-08-17 07:27:00,56.6,53.1,30.26,WNW,296,0.0,0.0,88,0.00,CLR,OVC,0.00,WeatherDisplay:10.37,2013-08-17 11:27:00,
2013-08-17 07:32:00,57.0,53.2,30.25,WNW,295,0.0,0.0,87,0.00,CLR,OVC,0.00,WeatherDisplay:10.37,2013-08-17 11:32:00,
2013-08-17 07:37:00,57.8,54.0,30.26,WNW,296,0.0,0.0,87,0.00,CLR,OVC,0.00,WeatherDisplay:10.37,2013-08-17 11:37:00,
2013-08-17 07:42:00,58.4,54.2,30.26,WNW,295,0.3,0.0,86,0.00,CLR,OVC,0.00,WeatherDisplay:10.37,2013-08-17 11:42:00,
2013-08-17 07:47:00,59.3,54.8,30.25,WNW,295,0.2,1.2,85,0.00,CLR,OVC,0.00,WeatherDisplay:10.37,2013-08-17 11:47:00,
2013-08-17 07:52:00,59.7,55.2,30.26,WNW,295,0.0,1.2,85,0.00,CLR,OVC,0.00,WeatherDisplay:10.37,2013-08-17 11:52:00,
2013-08-17 07:57:00,61.0,56.1,30.26,WNW,295,0.2,1.2,84,0.00,CLR,OVC,0.00,WeatherDisplay:10.37,2013-08-17 11:57:00,
2013-08-17 08:02:00,61.3,56.1,30.26,WNW,296,0.0,0.0,83,0.00,CLR,OVC,0.00,WeatherDisplay:10.37,2013-08-17 12:02:00,
2013-08-17 08:06:00,61.5,55.6,30.26,WNW,296,0.3,1.2,81,0.00,CLR,OVC,0.00,WeatherDisplay:10.37,2013-08-17 12:06:00,
2013-08-17 08:11:00,62.4,56.8,30.26,WNW,296,0.2,1.2,82,0.00,CLR,OVC,0.00,WeatherDisplay:10.37,2013-08-17 12:11:00,
2013-08-17 08:16:00,63.1,57.5,30.26,WNW,295,0.1,0.0,82,0.00,CLR,OVC,0.00,WeatherDisplay:10.37,2013-08-17 12:16:00,
2013-08-17 08:21:00,63.3,57.4,30.26,WNW,296,1.8,3.5,81,0.00,CLR,OVC,0.00,WeatherDisplay:10.37,2013-08-17 12:21:00,
2013-08-17 08:26:00,63.6,57.0,30.27,WNW,296,0.0,1.2,79,0.00,CLR,OVC,0.00,WeatherDisplay:10.37,2013-08-17 12:26:00,
2013-08-17 08:31:00,64.7,58.0,30.26,WNW,295,0.0,2.3,79,0.00,CLR,OVC,0.00,WeatherDisplay:10.37,2013-08-17 12:31:00,
2013-08-17 08:36:00,65.3,58.3,30.26,WNW,295,0.2,1.2,78,0.00,CLR,OVC,0.00,WeatherDisplay:10.37,2013-08-17 12:36:00,
2013-08-17 08:41:00,65.8,58.7,30.26,WNW,296,0.6,1.2,78,0.00,CLR,OVC,0.00,WeatherDisplay:10.37,2013-08-17 12:41:00,
2013-08-17 08:46:00,66.8,58.2,30.27,WNW,295,0.7,2.3,74,0.00,CLR,OVC,0.00,WeatherDisplay:10.37,2013-08-17 12:46:00,
2013-08-17 08:51:00,67.1,59.3,30.27,WNW,296,0.3,1.2,76,0.00,CLR,OVC,0.00,WeatherDisplay:10.37,2013-08-17 12:51:00,
2013-08-17 08:56:00,67.1,58.5,30.26,WNW,296,1.2,3.5,74,0.00,CLR,OVC,0.00,WeatherDisplay:10.37,2013-08-17 12:56:00,
2013-08-17 09:01:00,68.2,59.6,30.27,WNW,295,0.8,1.2,74,0.00,CLR,OVC,0.00,WeatherDisplay:10.37,2013-08-17 13:01:00,
2013-08-17 09:06:00,68.6,59.2,30.27,WNW,301,2.5,4.6,72,0.00,CLR,OVC,0.00,WeatherDisplay:10.37,2013-08-17 13:06:00,
2013-08-17 09:11:00,68.5,58.3,30.26,NE,48,1.2,2.3,70,0.00,CLR,OVC,0.00,WeatherDisplay:10.37,2013-08-17 13:11:00,
2013-08-17 09:16:00,69.4,59.2,30.28,ENE,59,1.4,3.5,70,0.00,CLR,OVC,0.00,WeatherDisplay:10.37,2013-08-17 13:16:00,
2013-08-17 09:21:00,69.6,59.0,30.27,ENE,64,1.4,3.5,69,0.00,CLR,OVC,0.00,WeatherDisplay:10.37,2013-08-17 13:21:00,
2013-08-17 09:26:00,69.7,58.3,30.27,ENE,67,2.4,5.8,67,0.00,CLR,OVC,0.00,WeatherDisplay:10.37,2013-08-17 13:26:00,
2013-08-17 09:31:00,69.9,57.6,30.28,East,97,1.4,4.6,65,0.00,CLR,OVC,0.00,WeatherDisplay:10.37,2013-08-17 13:31:00,
2013-08-17 09:36:00,70.7,58.4,30.28,SE,128,2.7,4.6,65,0.00,CLR,OVC,0.00,WeatherDisplay:10.37,2013-08-17 13:36:00,
2013-08-17 09:41:00,71.4,58.6,30.28,NE,40,2.6,5.8,64,0.00,CLR,OVC,0.00,WeatherDisplay:10.37,2013-08-17 13:41:00,
2013-08-17 09:46:00,71.1,59.2,30.27,East,87,1.7,6.9,66,0.00,CLR,OVC,0.00,WeatherDisplay:10.37,2013-08-17 13:46:00,
2013-08-17 09:51:00,72.2,59.3,30.28,East,91,2.3,3.5,64,0.00,CLR,OVC,0.00,WeatherDisplay:10.37,2013-08-17 13:51:00,
2013-08-17 09:56:00,72.2,57.5,30.28,NNW,327,2.4,3.5,60,0.00,CLR,OVC,0.00,WeatherDisplay:10.37,2013-08-17 13:56:00,
2013-08-17 10:01:00,72.9,59.6,30.28,NNW,341,1.4,3.0,63,0.00,CLR,OVC,0.00,WeatherDisplay:10.37,2013-08-17 14:01:00,
2013-08-17 10:06:00,73.2,58.9,30.28,North,355,0.8,2.3,61,0.00,CLR,OVC,0.00,WeatherDisplay:10.37,2013-08-17 14:06:00,
2013-08-17 10:11:00,73.7,59.4,30.29,NW,320,2.0,3.5,61,0.00,CLR,OVC,0.00,WeatherDisplay:10.37,2013-08-17 14:11:00,
2013-08-17 10:16:00,74.0,59.2,30.28,ENE,73,2.6,3.5,60,0.00,CLR,OVC,0.00,WeatherDisplay:10.37,2013-08-17 14:16:00,
2013-08-17 10:21:00,73.6,58.9,30.28,North,5,1.9,3.5,60,0.00,CLR,OVC,0.00,WeatherDisplay:10.37,2013-08-17 14:21:00,
2013-08-17 10:26:00,74.2,58.5,30.28,West,279,1.6,6.9,58,0.00,CLR,OVC,0.00,WeatherDisplay:10.37,2013-08-17 14:26:00,
2013-08-17 10:31:00,74.7,58.9,30.28,WNW,286,2.4,3.5,58,0.00,CLR,OVC,0.00,WeatherDisplay:10.37,2013-08-17 14:31:00,
2013-08-17 10:36:00,74.8,57.5,30.28,North,1,2.7,6.9,55,0.00,CLR,OVC,0.00,WeatherDisplay:10.37,2013-08-17 14:36:00,
2013-08-17 10:41:00,75.1,58.3,30.28,North,6,2.8,3.5,56,0.00,CLR,OVC,0.00,WeatherDisplay:10.37,2013-08-17 14:41:00,
2013-08-17 10:46:00,75.3,58.5,30.29,North,353,2.5,3.5,56,0.00,CLR,OVC,0.00,WeatherDisplay:10.37,2013-08-17 14:46:00,
2013-08-17 10:51:00,75.2,57.9,30.29,East,99,3.8,6.9,55,0.00,CLR,OVC,0.00,WeatherDisplay:10.37,2013-08-17 14:51:00,
2013-08-17 10:56:00,76.0,58.2,30.28,ENE,76,5.2,6.0,54,0.00,CLR,OVC,0.00,WeatherDisplay:10.37,2013-08-17 14:56:00,
2013-08-17 11:01:00,75.5,57.2,30.29,ESE,104,2.0,3.5,53,0.00,CLR,OVC,0.00,WeatherDisplay:10.37,2013-08-17 15:01:00,
2013-08-17 11:06:00,75.9,58.1,30.29,NNE,14,1.3,9.2,54,0.00,CLR,OVC,0.00,WeatherDisplay:10.37,2013-08-17 15:06:00,
2013-08-17 11:11:00,76.2,57.8,30.28,ENE,59,2.4,3.5,53,0.00,CLR,OVC,0.00,WeatherDisplay:10.37,2013-08-17 15:11:00,
2013-08-17 11:16:00,76.2,56.7,30.29,ENE,75,3.1,6.9,51,0.00,CLR,OVC,0.00,WeatherDisplay:10.37,2013-08-17 15:16:00,
2013-08-17 11:21:00,76.6,57.7,30.29,East,92,3.7,3.7,52,0.00,CLR,OVC,0.00,WeatherDisplay:10.37,2013-08-17 15:21:00,
2013-08-17 11:26:00,76.6,57.7,30.29,ESE,117,2.7,3.5,52,0.00,CLR,OVC,0.00,WeatherDisplay:10.37,2013-08-17 15:26:00,
2013-08-17 11:31:00,77.1,57.0,30.30,NNE,12,3.4,5.8,50,0.00,CLR,OVC,0.00,WeatherDisplay:10.37,2013-08-17 15:31:00,
2013-08-17 11:36:00,76.7,56.7,30.28,ENE,75,2.2,5.8,50,0.00,CLR,OVC,0.00,WeatherDisplay:10.37,2013-08-17 15:36:00,
2013-08-17 11:41:00,76.8,57.3,30.29,East,89,2.8,3.5,51,0.00,CLR,OVC,0.00,WeatherDisplay:10.37,2013-08-17 15:41:00,
2013-08-17 11:46:00,77.9,58.9,30.29,East,87,0.9,3.5,52,0.00,CLR,OVC,0.00,WeatherDisplay:10.37,2013-08-17 15:46:00,
2013-08-17 11:51:00,77.9,56.6,30.29,ENE,65,4.1,4.6,48,0.00,CLR,OVC,0.00,WeatherDisplay:10.37,2013-08-17 15:51:00,
2013-08-17 11:56:00,77.9,56.6,30.29,East,85,1.7,4.6,48,0.00,CLR,OVC,0.00,WeatherDisplay:10.37,2013-08-17 15:56:00,
2013-08-17 12:01:00,78.0,56.1,30.29,ENE,64,2.5,4.6,47,0.00,CLR,OVC,0.00,WeatherDisplay:10.37,2013-08-17 16:01:00,
2013-08-17 12:06:00,78.7,57.4,30.29,East,96,2.6,4.6,48,0.00,CLR,OVC,0.00,WeatherDisplay:10.37,2013-08-17 16:06:00,
2013-08-17 12:11:00,79.1,57.7,30.28,ENE,72,4.4,4.4,48,0.00,CLR,OVC,0.00,WeatherDisplay:10.37,2013-08-17 16:11:00,
2013-08-17 12:16:00,79.1,57.7,30.28,ENE,71,0.8,2.3,48,0.00,CLR,OVC,0.00,WeatherDisplay:10.37,2013-08-17 16:16:00,
2013-08-17 12:21:00,78.8,55.7,30.28,ESE,107,3.7,5.8,45,0.00,CLR,OVC,0.00,WeatherDisplay:10.37,2013-08-17 16:21:00,
2013-08-17 12:26:00,78.9,55.8,30.28,East,83,1.4,3.5,45,0.00,CLR,OVC,0.00,WeatherDisplay:10.37,2013-08-17 16:26:00,
2013-08-17 12:31:00,79.0,56.5,30.28,East,88,1.6,3.5,46,0.00,CLR,OVC,0.00,WeatherDisplay:10.37,2013-08-17 16:31:00,
2013-08-17 12:36:00,78.9,56.4,30.29,ENE,71,2.6,4.0,46,0.00,CLR,OVC,0.00,WeatherDisplay:10.37,2013-08-17 16:36:00,
2013-08-17 12:41:00,79.1,56.5,30.28,ESE,110,4.2,6.9,46,0.00,CLR,OVC,0.00,WeatherDisplay:10.37,2013-08-17 16:41:00,
2013-08-17 12:46:00,78.6,56.1,30.28,NE,37,2.9,3.5,46,0.00,CLR,OVC,0.00,WeatherDisplay:10.37,2013-08-17 16:46:00,
2013-08-17 12:51:00,78.7,55.6,30.28,NE,37,1.9,3.5,45,0.00,CLR,OVC,0.00,WeatherDisplay:10.37,2013-08-17 16:51:00,
2013-08-17 12:56:00,79.8,57.8,30.28,NE,40,1.9,4.6,47,0.00,CLR,OVC,0.00,WeatherDisplay:10.37,2013-08-17 16:56:00,
2013-08-17 13:01:00,80.2,56.9,30.28,East,86,2.2,3.5,45,0.00,CLR,OVC,0.00,WeatherDisplay:10.37,2013-08-17 17:01:00,
2013-08-17 13:06:00,80.1,56.8,30.28,East,83,2.6,3.5,45,0.00,CLR,OVC,0.00,WeatherDisplay:10.37,2013-08-17 17:06:00,
2013-08-17 13:11:00,80.5,56.6,30.28,NE,42,4.0,5.8,44,0.00,CLR,OVC,0.00,WeatherDisplay:10.37,2013-08-17 17:11:00,
2013-08-17 13:16:00,80.4,57.7,30.28,ENE,61,3.3,6.9,46,0.00,CLR,OVC,0.00,WeatherDisplay:10.37,2013-08-17 17:16:00,
2013-08-17 13:21:00,79.6,55.8,30.28,North,1,2.3,4.6,44,0.00,CLR,OVC,0.00,WeatherDisplay:10.37,2013-08-17 17:21:00,
2013-08-17 13:26:00,79.8,56.6,30.27,East,95,3.5,5.8,45,0.00,CLR,OVC,0.00,WeatherDisplay:10.37,2013-08-17 17:26:00,
2013-08-17 13:31:00,80.2,55.7,30.27,NW,319,3.3,5.8,43,0.00,CLR,OVC,0.00,WeatherDisplay:10.37,2013-08-17 17:31:00,
2013-08-17 13:36:00,80.4,56.5,30.27,ESE,102,1.5,3.5,44,0.00,CLR,OVC,0.00,WeatherDisplay:10.37,2013-08-17 17:36:00,
2013-08-17 13:41:00,80.3,55.8,30.27,NW,307,3.4,6.9,43,0.00,CLR,OVC,0.00,WeatherDisplay:10.37,2013-08-17 17:41:00,
2013-08-17 13:47:00,80.8,57.5,30.27,North,1,1.8,3.5,45,0.00,CLR,OVC,0.00,WeatherDisplay:10.37,2013-08-17 17:47:00,
2013-08-17 13:52:00,80.9,55.7,30.27,NE,37,2.8,4.6,42,0.00,CLR,OVC,0.00,WeatherDisplay:10.37,2013-08-17 17:52:00,
2013-08-17 13:57:00,80.6,56.0,30.27,NE,42,1.7,3.5,43,0.00,CLR,OVC,0.00,WeatherDisplay:10.37,2013-08-17 17:57:00,
2013-08-17 14:02:00,80.9,56.9,30.27,ESE,110,3.4,6.0,44,0.00,CLR,OVC,0.00,WeatherDisplay:10.37,2013-08-17 18:02:00,
2013-08-17 14:07:00,81.8,58.4,30.27,SE,127,0.5,1.2,45,0.00,CLR,OVC,0.00,WeatherDisplay:10.37,2013-08-17 18:07:00,
2013-08-17 14:12:00,82.4,57.7,30.26,SE,126,1.4,2.3,43,0.00,CLR,OVC,0.00,WeatherDisplay:10.37,2013-08-17 18:12:00,
2013-08-17 14:17:00,82.3,57.6,30.26,ENE,58,2.2,4.6,43,0.00,CLR,OVC,0.00,WeatherDisplay:10.37,2013-08-17 18:17:00,
2013-08-17 14:22:00,81.5,57.5,30.26,ESE,121,2.9,5.8,44,0.00,CLR,OVC,0.00,WeatherDisplay:10.37,2013-08-17 18:22:00,
2013-08-17 14:27:00,81.4,55.4,30.27,ENE,58,0.5,3.5,41,0.00,CLR,OVC,0.00,WeatherDisplay:10.37,2013-08-17 18:27:00,
2013-08-17 14:32:00,81.5,58.1,30.26,SE,138,2.8,3.5,45,0.00,CLR,OVC,0.00,WeatherDisplay:10.37,2013-08-17 18:32:00,
2013-08-17 14:37:00,81.6,56.3,30.26,NE,49,4.4,5.8,42,0.00,CLR,OVC,0.00,WeatherDisplay:10.37,2013-08-17 18:37:00,
2013-08-17 14:42:00,81.3,56.7,30.26,ENE,68,2.2,6.9,43,0.00,CLR,OVC,0.00,WeatherDisplay:10.37,2013-08-17 18:42:00,
2013-08-17 14:47:00,81.5,59.3,30.27,South,191,1.1,3.5,47,0.00,CLR,OVC,0.00,WeatherDisplay:10.37,2013-08-17 18:47:00,
2013-08-17 14:52:00,81.6,58.2,30.26,NE,42,2.6,3.5,45,0.00,CLR,OVC,0.00,WeatherDisplay:10.37,2013-08-17 18:52:00,
2013-08-17 14:57:00,81.2,57.2,30.26,NE,45,1.4,2.3,44,0.00,CLR,OVC,0.00,WeatherDisplay:10.37,2013-08-17 18:57:00,
2013-08-17 15:02:00,81.1,57.1,30.26,East,79,1.3,3.5,44,0.00,CLR,OVC,0.00,WeatherDisplay:10.37,2013-08-17 19:02:00,
2013-08-17 15:07:00,81.3,59.1,30.26,SE,141,0.9,1.2,47,0.00,CLR,OVC,0.00,WeatherDisplay:10.37,2013-08-17 19:07:00,
2013-08-17 15:12:00,81.4,59.8,30.26,SSW,199,2.4,4.6,48,0.00,CLR,OVC,0.00,WeatherDisplay:10.37,2013-08-17 19:12:00,
2013-08-17 15:17:00,81.5,58.7,30.25,SSE,166,1.4,3.5,46,0.00,CLR,OVC,0.00,WeatherDisplay:10.37,2013-08-17 19:17:00,
2013-08-17 15:22:00,81.6,59.4,30.26,SE,124,2.0,8.1,47,0.00,CLR,OVC,0.00,WeatherDisplay:10.37,2013-08-17 19:22:00,
2013-08-17 15:27:00,81.5,59.3,30.26,SW,234,4.4,8.1,47,0.00,CLR,OVC,0.00,WeatherDisplay:10.37,2013-08-17 19:27:00,
2013-08-17 15:32:00,81.2,59.6,30.26,South,182,3.5,6.9,48,0.00,CLR,OVC,0.00,WeatherDisplay:10.37,2013-08-17 19:32:00,
2013-08-17 15:37:00,81.3,59.7,30.26,SW,215,4.5,8.1,48,0.00,CLR,OVC,0.00,WeatherDisplay:10.37,2013-08-17 19:37:00,
2013-08-17 15:42:00,81.0,58.9,30.25,South,174,1.6,6.0,47,0.00,CLR,OVC,0.00,WeatherDisplay:10.37,2013-08-17 19:42:00,
2013-08-17 15:47:00,80.8,58.7,30.25,SW,222,4.7,9.2,47,0.00,CLR,OVC,0.00,WeatherDisplay:10.37,2013-08-17 19:47:00,
2013-08-17 15:52:00,80.7,58.0,30.25,SSW,208,1.2,5.8,46,0.00,CLR,OVC,0.00,WeatherDisplay:10.37,2013-08-17 19:52:00,
2013-08-17 15:57:00,80.6,59.7,30.25,SSE,162,3.5,5.8,49,0.00,CLR,OVC,0.00,WeatherDisplay:10.37,2013-08-17 19:57:00,
2013-08-17 16:02:00,81.0,59.5,30.25,SW,214,3.5,8.1,48,0.00,CLR,OVC,0.00,WeatherDisplay:10.37,2013-08-17 20:02:00,
2013-08-17 16:07:00,80.7,58.6,30.24,SSW,213,4.2,4.6,47,0.00,CLR,OVC,0.00,WeatherDisplay:10.37,2013-08-17 20:07:00,
2013-08-17 16:12:00,80.9,59.4,30.25,SSW,213,4.8,8.1,48,0.00,CLR,OVC,0.00,WeatherDisplay:10.37,2013-08-17 20:12:00,
2013-08-17 16:17:00,80.1,57.5,30.25,SSE,168,1.2,5.8,46,0.00,CLR,OVC,0.00,WeatherDisplay:10.37,2013-08-17 20:17:00,
2013-08-17 16:22:00,79.9,58.5,30.26,SSE,154,2.9,10.4,48,0.00,CLR,OVC,0.00,WeatherDisplay:10.37,2013-08-17 20:22:00,
2013-08-17 16:27:00,79.5,56.9,30.25,SW,233,2.5,8.1,46,0.00,CLR,OVC,0.00,WeatherDisplay:10.37,2013-08-17 20:27:00,
2013-08-17 16:32:00,79.0,57.0,30.25,SSW,209,3.2,3.5,47,0.00,CLR,OVC,0.00,WeatherDisplay:10.37,2013-08-17 20:32:00,
2013-08-17 16:37:00,77.9,56.6,30.25,SSW,208,2.3,5.8,48,0.00,CLR,OVC,0.00,WeatherDisplay:10.37,2013-08-17 20:37:00,
2013-08-17 16:42:00,78.1,57.4,30.25,SSW,205,1.4,2.3,49,0.00,CLR,OVC,0.00,WeatherDisplay:10.37,2013-08-17 20:42:00,
2013-08-17 16:47:00,78.0,56.7,30.25,ESE,103,2.5,4.6,48,0.00,CLR,OVC,0.00,WeatherDisplay:10.37,2013-08-17 20:47:00,
2013-08-17 16:52:00,77.2,55.4,30.26,ESE,105,2.5,3.5,47,0.00,CLR,OVC,0.00,WeatherDisplay:10.37,2013-08-17 20:52:00,
2013-08-17 16:57:00,77.2,55.4,30.25,SE,145,2.3,5.8,47,0.00,CLR,OVC,0.00,WeatherDisplay:10.37,2013-08-17 20:57:00,
2013-08-17 17:02:00,77.1,55.3,30.25,SE,144,1.6,3.5,47,0.00,CLR,OVC,0.00,WeatherDisplay:10.37,2013-08-17 21:02:00,
2013-08-17 17:07:00,76.6,54.9,30.26,East,95,3.4,3.5,47,0.00,CLR,OVC,0.00,WeatherDisplay:10.37,2013-08-17 21:07:00,
2013-08-17 17:12:00,76.3,54.6,30.26,ESE,105,2.3,3.5,47,0.00,CLR,OVC,0.00,WeatherDisplay:10.37,2013-08-17 21:12:00,
2013-08-17 17:17:00,75.7,55.7,30.25,SE,141,1.1,3.5,50,0.00,CLR,OVC,0.00,WeatherDisplay:10.37,2013-08-17 21:17:00,
2013-08-17 17:22:00,75.5,55.6,30.25,SE,141,0.5,3.5,50,0.00,CLR,OVC,0.00,WeatherDisplay:10.37,2013-08-17 21:22:00,
2013-08-17 17:27:00,75.5,56.6,30.25,SE,141,0.5,2.3,52,0.00,CLR,OVC,0.00,WeatherDisplay:10.37,2013-08-17 21:27:00,
2013-08-17 17:32:00,76.2,56.7,30.26,SE,144,1.3,3.5,51,0.00,CLR,OVC,0.00,WeatherDisplay:10.37,2013-08-17 21:32:00,
2013-08-17 17:37:00,76.2,58.3,30.26,SE,143,0.1,1.2,54,0.00,CLR,OVC,0.00,WeatherDisplay:10.37,2013-08-17 21:37:00,
2013-08-17 17:42:00,75.3,57.5,30.26,SE,144,0.7,3.5,54,0.00,CLR,OVC,0.00,WeatherDisplay:10.37,2013-08-17 21:42:00,
2013-08-17 17:47:00,75.3,57.0,30.26,SE,143,0.9,2.3,53,0.00,CLR,OVC,0.00,WeatherDisplay:10.37,2013-08-17 21:47:00,
2013-08-17 17:52:00,75.7,56.8,30.26,SE,145,0.4,2.3,52,0.00,CLR,OVC,0.00,WeatherDisplay:10.37,2013-08-17 21:52:00,
2013-08-17 17:57:00,75.5,56.6,30.26,SE,143,1.1,2.3,52,0.00,CLR,OVC,0.00,WeatherDisplay:10.37,2013-08-17 21:57:00,
2013-08-17 18:02:00,75.0,57.2,30.26,SE,143,0.0,1.2,54,0.00,CLR,OVC,0.00,WeatherDisplay:10.37,2013-08-17 22:02:00,
2013-08-17 18:07:00,74.6,56.9,30.27,SE,144,0.2,1.2,54,0.00,CLR,OVC,0.00,WeatherDisplay:10.37,2013-08-17 22:07:00,
2013-08-17 18:12:00,74.4,56.2,30.26,SE,145,1.4,3.5,53,0.00,CLR,OVC,0.00,WeatherDisplay:10.37,2013-08-17 22:12:00,
2013-08-17 18:17:00,73.9,55.2,30.26,SE,144,1.5,3.5,52,0.00,CLR,OVC,0.00,WeatherDisplay:10.37,2013-08-17 22:17:00,
2013-08-17 18:22:00,74.1,56.4,30.26,SE,143,0.3,3.5,54,0.00,CLR,OVC,0.00,WeatherDisplay:10.37,2013-08-17 22:22:00,
2013-08-17 18:27:00,73.6,55.9,30.26,SE,143,0.3,1.2,54,0.00,CLR,OVC,0.00,WeatherDisplay:10.37,2013-08-17 22:27:00,
2013-08-17 18:32:00,73.4,56.2,30.26,SE,144,0.8,2.3,55,0.00,CLR,OVC,0.00,WeatherDisplay:10.37,2013-08-17 22:32:00,
2013-08-17 18:37:00,72.8,55.2,30.26,SE,145,0.9,2.3,54,0.00,CLR,OVC,0.00,WeatherDisplay:10.37,2013-08-17 22:37:00,
2013-08-17 18:42:00,72.0,55.9,30.26,SE,143,0.0,0.0,57,0.00,CLR,OVC,0.00,WeatherDisplay:10.37,2013-08-17 22:42:00,
2013-08-17 18:47:00,72.0,58.7,30.26,SE,145,0.0,0.0,63,0.00,CLR,OVC,0.00,WeatherDisplay:10.37,2013-08-17 22:47:00,
2013-08-17 18:52:00,72.3,59.0,30.26,SE,144,0.1,1.2,63,0.00,CLR,OVC,0.00,WeatherDisplay:10.37,2013-08-17 22:52:00,
2013-08-17 18:57:00,71.9,57.7,30.27,SE,144,0.1,1.2,61,0.00,CLR,OVC,0.00,WeatherDisplay:10.37,2013-08-17 22:57:00,
2013-08-17 19:02:00,71.4,59.0,30.26,SE,144,0.0,1.2,65,0.00,CLR,OVC,0.00,WeatherDisplay:10.37,2013-08-17 23:02:00,
2013-08-17 19:07:00,71.2,58.4,30.26,SE,144,0.0,0.0,64,0.00,CLR,OVC,0.00,WeatherDisplay:10.37,2013-08-17 23:07:00,
2013-08-17 19:12:00,70.4,57.6,30.26,SE,145,0.0,0.0,64,0.00,CLR,OVC,0.00,WeatherDisplay:10.37,2013-08-17 23:12:00,
2013-08-17 19:17:00,70.3,58.4,30.26,SE,144,0.0,0.0,66,0.00,CLR,OVC,0.00,WeatherDisplay:10.37,2013-08-17 23:17:00,
2013-08-17 19:22:00,70.0,59.0,30.27,SE,144,0.0,0.0,68,0.00,CLR,OVC,0.00,WeatherDisplay:10.37,2013-08-17 23:22:00,
2013-08-17 19:27:00,69.6,58.2,30.26,SE,144,0.1,1.2,67,0.00,CLR,OVC,0.00,WeatherDisplay:10.37,2013-08-17 23:27:00,
2013-08-17 19:32:00,69.2,58.2,30.26,SE,144,0.0,0.0,68,0.00,CLR,OVC,0.00,WeatherDisplay:10.37,2013-08-17 23:32:00,
2013-08-17 19:38:00,68.2,57.2,30.27,SE,143,0.1,1.2,68,0.00,CLR,OVC,0.00,WeatherDisplay:10.37,2013-08-17 23:38:00,
2013-08-17 19:43:00,68.3,57.7,30.26,SE,144,0.2,1.2,69,0.00,CLR,OVC,0.00,WeatherDisplay:10.37,2013-08-17 23:43:00,
2013-08-17 19:48:00,67.4,57.3,30.26,SE,143,0.0,0.0,70,0.00,CLR,OVC,0.00,WeatherDisplay:10.37,2013-08-17 23:48:00,
2013-08-17 19:53:00,66.8,56.7,30.26,SE,144,0.0,0.0,70,0.00,CLR,OVC,0.00,WeatherDisplay:10.37,2013-08-17 23:53:00,
2013-08-17 19:58:00,66.5,56.4,30.26,SE,144,0.0,0.0,70,0.00,CLR,OVC,0.00,WeatherDisplay:10.37,2013-08-17 23:58:00,
2013-08-17 20:03:00,66.2,56.9,30.26,SE,145,0.0,1.2,72,0.00,CLR,OVC,0.00,WeatherDisplay:10.37,2013-08-18 00:03:00,
2013-08-17 20:08:00,65.8,56.5,30.27,SE,144,0.0,0.0,72,0.00,CLR,OVC,0.00,WeatherDisplay:10.37,2013-08-18 00:08:00,
2013-08-17 20:13:00,66.0,56.3,30.26,SE,143,0.1,1.2,71,0.00,CLR,OVC,0.00,WeatherDisplay:10.37,2013-08-18 00:13:00,
2013-08-17 20:18:00,65.5,56.2,30.27,SE,145,0.0,0.0,72,0.00,CLR,OVC,0.00,WeatherDisplay:10.37,2013-08-18 00:18:00,
2013-08-17 20:23:00,65.3,56.0,30.27,SE,144,0.0,0.0,72,0.00,CLR,OVC,0.00,WeatherDisplay:10.37,2013-08-18 00:23:00,
2013-08-17 20:28:00,64.8,55.9,30.27,SE,144,0.0,0.0,73,0.00,CLR,OVC,0.00,WeatherDisplay:10.37,2013-08-18 00:28:00,
2013-08-17 20:33:00,65.0,55.8,30.27,SE,144,0.0,0.0,72,0.00,CLR,OVC,0.00,WeatherDisplay:10.37,2013-08-18 00:33:00,
2013-08-17 20:38:00,64.9,56.8,30.27,SE,145,0.0,0.0,75,0.00,CLR,OVC,0.00,WeatherDisplay:10.37,2013-08-18 00:38:00,
2013-08-17 20:43:00,64.2,56.1,30.27,SE,145,0.0,0.0,75,0.00,CLR,OVC,0.00,WeatherDisplay:10.37,2013-08-18 00:43:00,
2013-08-17 20:48:00,64.7,57.0,30.27,SE,144,0.0,0.0,76,0.00,CLR,OVC,0.00,WeatherDisplay:10.37,2013-08-18 00:48:00,
2013-08-17 20:53:00,64.5,56.0,30.27,SE,144,0.0,0.0,74,0.00,CLR,OVC,0.00,WeatherDisplay:10.37,2013-08-18 00:53:00,
2013-08-17 20:58:00,64.0,55.5,30.27,SE,143,0.0,0.0,74,0.00,CLR,OVC,0.00,WeatherDisplay:10.37,2013-08-18 00:58:00,
2013-08-17 21:03:00,63.5,55.8,30.27,SE,143,0.0,0.0,76,0.00,CLR,OVC,0.00,WeatherDisplay:10.37,2013-08-18 01:03:00,
2013-08-17 21:08:00,63.3,55.6,30.28,SE,143,0.0,0.0,76,0.00,CLR,OVC,0.00,WeatherDisplay:10.37,2013-08-18 01:08:00,
2013-08-17 21:13:00,63.5,55.8,30.28,SE,143,0.0,0.0,76,0.00,CLR,OVC,0.00,WeatherDisplay:10.37,2013-08-18 01:13:00,
2013-08-17 21:18:00,63.6,55.9,30.27,SE,144,0.0,0.0,76,0.00,CLR,OVC,0.00,WeatherDisplay:10.37,2013-08-18 01:18:00,
2013-08-17 21:23:00,63.2,55.9,30.27,SE,144,0.0,0.0,77,0.00,CLR,OVC,0.00,WeatherDisplay:10.37,2013-08-18 01:23:00,
2013-08-17 21:28:00,62.7,55.7,30.27,SE,144,0.0,0.0,78,0.00,CLR,OVC,0.00,WeatherDisplay:10.37,2013-08-18 01:28:00,
2013-08-17 21:33:00,63.0,56.0,30.27,SE,144,0.0,0.0,78,0.00,CLR,OVC,0.00,WeatherDisplay:10.37,2013-08-18 01:33:00,
2013-08-17 21:38:00,62.9,57.0,30.28,SE,145,0.0,0.0,81,0.00,CLR,OVC,0.00,WeatherDisplay:10.37,2013-08-18 01:38:00,
2013-08-17 21:43:00,62.8,56.5,30.27,SE,144,0.0,0.0,80,0.00,CLR,OVC,0.00,WeatherDisplay:10.37,2013-08-18 01:43:00,
2013-08-17 21:48:00,62.5,56.2,30.27,SE,144,0.0,0.0,80,0.00,CLR,OVC,0.00,WeatherDisplay:10.37,2013-08-18 01:48:00,
2013-08-17 21:53:00,62.7,56.1,30.27,SE,144,0.0,0.0,79,0.00,CLR,OVC,0.00,WeatherDisplay:10.37,2013-08-18 01:53:00,
2013-08-17 21:58:00,62.3,55.7,30.28,SE,143,0.0,0.0,79,0.00,CLR,OVC,0.00,WeatherDisplay:10.37,2013-08-18 01:58:00,
2013-08-17 22:03:00,62.0,55.8,30.28,SE,143,0.0,0.0,80,0.00,CLR,OVC,0.00,WeatherDisplay:10.37,2013-08-18 02:03:00,
2013-08-17 22:08:00,62.0,56.1,30.27,SE,144,0.0,0.0,81,0.00,CLR,OVC,0.00,WeatherDisplay:10.37,2013-08-18 02:08:00,
2013-08-17 22:13:00,61.9,56.3,30.28,SE,144,0.0,0.0,82,0.00,CLR,OVC,0.00,WeatherDisplay:10.37,2013-08-18 02:13:00,
2013-08-17 22:18:00,61.7,55.8,30.28,SE,144,0.0,0.0,81,0.00,CLR,OVC,0.00,WeatherDisplay:10.37,2013-08-18 02:18:00,
2013-08-17 22:23:00,61.5,56.0,30.28,SE,143,0.0,0.0,82,0.00,CLR,OVC,0.00,WeatherDisplay:10.37,2013-08-18 02:23:00,
2013-08-17 22:28:00,61.7,56.5,30.27,SE,145,0.0,0.0,83,0.00,CLR,OVC,0.00,WeatherDisplay:10.37,2013-08-18 02:28:00,
2013-08-17 22:33:00,61.7,56.5,30.27,SE,144,0.0,0.0,83,0.00,CLR,OVC,0.00,WeatherDisplay:10.37,2013-08-18 02:33:00,
2013-08-17 22:38:00,61.7,55.8,30.28,SE,144,0.0,0.0,81,0.00,CLR,OVC,0.00,WeatherDisplay:10.37,2013-08-18 02:38:00,
2013-08-17 22:43:00,61.6,56.0,30.28,SE,144,0.0,0.0,82,0.00,CLR,OVC,0.00,WeatherDisplay:10.37,2013-08-18 02:43:00,
2013-08-17 22:48:00,60.8,55.3,30.28,SE,144,0.0,0.0,82,0.00,CLR,OVC,0.00,WeatherDisplay:10.37,2013-08-18 02:48:00,
2013-08-17 22:53:00,61.1,55.6,30.28,SE,144,0.0,0.0,82,0.00,CLR,OVC,0.00,WeatherDisplay:10.37,2013-08-18 02:53:00,
2013-08-17 22:58:00,61.1,55.9,30.28,SE,144,0.0,0.0,83,0.00,CLR,OVC,0.00,WeatherDisplay:10.37,2013-08-18 02:58:00,
2013-08-17 23:03:00,61.2,56.0,30.28,SE,145,0.0,0.0,83,0.00,CLR,OVC,0.00,WeatherDisplay:10.37,2013-08-18 03:03:00,
2013-08-17 23:08:00,61.6,56.4,30.28,SE,143,0.0,0.0,83,0.00,CLR,OVC,0.00,WeatherDisplay:10.37,2013-08-18 03:08:00,
2013-08-17 23:13:00,61.5,56.3,30.28,SE,144,0.0,0.0,83,0.00,CLR,OVC,0.00,WeatherDisplay:10.37,2013-08-18 03:13:00,
2013-08-17 23:18:00,61.3,55.8,30.28,SE,142,0.0,0.0,82,0.00,CLR,OVC,0.00,WeatherDisplay:10.37,2013-08-18 03:18:00,
2013-08-17 23:23:00,60.8,55.3,30.28,SE,144,0.0,0.0,82,0.00,CLR,OVC,0.00,WeatherDisplay:10.37,2013-08-18 03:23:00,
2013-08-17 23:28:00,61.0,55.5,30.28,SE,143,0.0,0.0,82,0.00,CLR,OVC,0.00,WeatherDisplay:10.37,2013-08-18 03:28:00,
2013-08-17 23:33:00,61.2,55.7,30.28,SE,144,0.0,0.0,82,0.00,CLR,OVC,0.00,WeatherDisplay:10.37,2013-08-18 03:33:00,
2013-08-17 23:38:00,61.0,55.5,30.28,SE,143,0.0,0.0,82,0.00,CLR,OVC,0.00,WeatherDisplay:10.37,2013-08-18 03:38:00,
2013-08-17 23:43:00,61.0,55.5,30.28,SE,144,0.0,0.0,82,0.00,CLR,OVC,0.00,WeatherDisplay:10.37,2013-08-18 03:43:00,
2013-08-17 23:48:00,61.0,55.8,30.29,SE,144,0.0,0.0,83,0.00,CLR,OVC,0.00,WeatherDisplay:10.37,2013-08-18 03:48:00,
2013-08-17 23:53:00,60.4,55.2,30.28,SE,145,0.0,0.0,83,0.00,CLR,OVC,0.00,WeatherDisplay:10.37,2013-08-18 03:53:00,
2013-08-17 23:58:00,60.7,55.5,30.28,SE,144,0.0,0.0,83,0.00,CLR,OVC,0.00,WeatherDisplay:10.37,2013-08-18 03:58:00,